SCP
4 3 3 3 2 1 1 0 0 0 0 0 0 0 0 0 0 0 0 0 0 0 0 0 0 0 0 0 0 0 0 0 0 0 0 0 0 0 0 0 0 0 0
4 3 3 3 2 1 1 1 1 0 0 0 0 0 0 0 0 0 0 0 0 0 0 0 0 0 0 0 0 0 0 0 0 0 0 0 0 0 0 0 0 0 0
4 3 3 3 2 2 1 1 1 1 0 0 1 1 0 0 0 0 0 0 0 0 0 0 0 0 0 0 0 0 0 0 0 0 0 0 0 0 0 0 0 0 0
3 3 3 2 2 2 2 1 1 1 1 1 1 1 1 1 0 0 0 0 0 0 0 0 0 0 0 0 0 0 0 0 0 0 0 0 0 0 0 0 0 0 0
3 3 2 2 2 2 1 1 1 1 1 1 1 1 1 1 1 1 1 1 0 0 0 0 0 0 0 0 0 0 0 0 0 0 0 0 0 0 0 0 0 0 0
3 2 2 2 2 2 1 1 1 1 1 1 1 1 1 1 1 1 1 1 1 1 1 0 0 0 0 0 0 0 0 0 0 0 0 0 0 0 0 0 0 0 0
3 3 2 2 2 1 1 1 1 1 1 1 1 1 1 1 1 1 1 1 1 1 1 1 1 1 1 1 0 0 0 0 0 0 0 1 1 1 0 0 0 0 0
4 4 3 2 2 1 1 1 1 1 1 1 1 1 1 1 1 1 1 1 1 1 1 1 1 1 1 1 1 1 0 0 0 0 0 1 1 1 1 1 0 0 0
5 5 3 2 2 2 1 1 1 1 1 1 1 1 1 1 1 1 1 2 2 2 2 1 1 1 1 1 1 1 1 0 0 0 1 1 2 2 1 1 1 0 0
5 5 3 2 2 2 1 1 1 1 1 1 2 2 1 1 1 1 2 2 2 2 2 2 2 1 1 1 1 1 1 1 0 0 1 2 2 3 2 1 1 1 0
5 4 3 3 3 2 2 2 2 1 2 2 2 2 2 2 2 2 2 3 3 3 3 2 2 2 2 1 1 1 1 1 0 0 1 2 3 3 3 2 1 1 1
5 5 5 6 5 4 3 3 2 2 2 2 2 3 3 2 2 2 3 4 4 4 4 3 3 2 2 2 2 2 1 1 1 1 1 3 4 4 3 2 2 1 1
7 7 8 9 8 6 5 4 3 3 3 3 3 3 3 3 3 3 4 5 5 5 5 4 3 3 2 2 2 2 2 2 1 1 2 3 4 4 3 2 2 1 1
11 11 11 11 10 9 7 6 5 4 4 5 5 5 4 4 4 4 6 7 6 6 5 4 4 3 3 3 3 3 3 2 2 2 2 3 4 4 3 2 2 2 1
14 13 12 12 11 10 8 7 6 6 5 6 7 6 5 6 6 6 7 9 8 6 5 5 4 4 4 4 4 3 3 3 2 2 3 3 4 3 3 2 2 2 1
15 14 13 13 12 10 8 7 7 6 6 6 8 8 7 7 7 7 8 10 8 7 6 7 7 6 5 4 3 3 3 3 3 3 3 3 3 3 3 2 2 2 1
15 14 13 12 11 9 7 6 6 6 6 7 7 8 7 7 8 8 9 10 10 8 8 9 9 7 5 3 2 2 2 2 3 3 3 3 3 2 2 2 2 2 1
15 14 12 10 10 9 7 6 6 6 6 6 6 7 7 7 7 7 9 10 10 8 7 8 8 7 4 2 2 2 2 2 2 3 3 3 3 3 2 2 2 2 2
14 13 11 9 8 8 6 6 5 5 5 5 5 6 6 6 6 6 6 7 7 6 5 5 5 4 3 2 2 2 2 2 2 2 2 2 3 3 3 2 1 1 1
11 11 9 8 7 7 6 6 6 6 6 5 5 5 5 5 4 4 4 4 4 3 3 3 3 3 2 2 1 1 1 2 2 2 2 2 2 2 2 2 2 1 1
8 8 7 6 6 6 6 7 7 7 7 7 6 5 4 3 3 3 3 3 3 3 2 2 2 2 2 1 1 1 1 1 1 1 1 1 2 2 2 2 2 2 1
4 4 4 4 4 5 6 6 7 7 7 7 6 4 3 3 2 3 3 3 2 2 2 2 2 3 5 3 1 1 1 1 1 1 1 1 1 1 1 2 2 2 2
2 2 3 4 4 5 4 5 5 5 5 5 4 4 3 2 2 2 2 2 2 3 3 2 2 5 8 4 1 1 1 1 1 1 1 1 1 1 1 1 1 2 2
2 2 3 4 5 4 4 4 4 4 4 3 3 3 3 3 2 2 2 2 2 2 2 2 2 4 5 3 1 1 1 1 1 1 1 1 1 1 1 1 1 2 2
2 2 3 5 6 5 4 4 4 4 4 3 3 3 3 3 2 2 2 2 2 2 2 2 2 2 2 2 2 2 1 1 1 1 1 1 1 1 1 1 1 2 2
2 2 3 5 6 6 5 4 4 4 4 3 3 2 2 2 2 2 2 2 1 1 1 2 2 2 2 2 2 2 2 1 1 2 1 1 1 1 1 1 2 2 3
Wind_Speed
19 19 19 17 15 13 12 13 12 12 12 11 11 10 10 11 11 11 11 11 11 11 10 10 9 9 9 9 10 11 11 11 12 12 13 12 11 10 9 7 11 13 14
22 19 19 17 15 13 12 12 12 12 12 11 11 11 11 11 11 10 10 10 10 9 9 9 9 9 9 9 9 9 9 9 9 10 12 11 10 9 9 7 11 11 13
21 18 18 16 15 13 12 12 12 12 12 12 11 11 11 11 11 10 10 9 9 9 8 8 8 9 9 9 9 8 8 7 7 8 9 9 9 9 10 14 16 14 13
20 17 16 17 15 14 13 12 12 12 12 12 12 11 11 11 10 10 10 9 8 8 8 8 8 8 8 8 8 7 7 6 6 6 5 6 8 10 10 11 12 12 12
18 16 17 18 16 14 13 12 12 12 12 12 11 11 11 10 10 9 9 9 8 8 8 8 8 8 8 7 7 7 6 6 6 7 4 6 8 10 10 10 10 10 10
18 17 18 17 16 15 13 12 12 11 11 11 11 10 10 10 10 10 9 9 8 8 8 8 8 8 8 7 7 6 6 6 6 8 4 8 9 11 11 10 9 9 9
18 18 17 17 16 14 13 12 11 11 10 10 10 10 10 10 10 10 10 10 9 8 8 8 8 9 9 8 7 7 7 8 8 7 3 8 11 13 12 10 9 9 9
20 19 16 17 16 14 13 12 11 11 10 10 10 10 10 9 9 9 9 9 9 9 9 9 9 9 10 9 9 8 8 9 9 9 5 9 15 15 14 11 10 10 9
20 19 15 14 14 14 13 12 11 11 10 10 10 9 9 9 9 10 10 10 10 10 10 10 10 10 10 10 10 10 10 11 9 8 5 9 17 18 16 13 12 11 11
19 18 15 15 13 12 11 13 12 11 10 10 10 10 10 10 11 12 11 12 12 11 11 11 11 11 11 11 12 12 12 10 9 11 5 9 21 20 18 15 14 13 12
15 15 15 15 13 12 12 13 12 12 11 11 10 12 11 9 11 11 15 16 16 14 14 13 12 12 12 13 14 14 12 7 10 8 6 12 22 21 19 17 15 14 14
11 13 11 13 12 10 9 10 9 9 10 9 8 10 8 7 7 10 14 18 18 17 16 15 14 13 11 9 13 15 8 11 10 8 6 16 20 20 20 18 16 15 15
8 8 10 10 9 6 4 7 4 4 6 9 8 8 7 6 6 6 4 9 12 14 11 12 12 9 10 8 6 8 10 9 7 6 5 17 19 20 20 19 17 16 16
7 6 6 9 8 3 2 2 2 2 3 4 4 5 4 3 3 3 2 2 5 6 8 7 7 10 10 9 8 8 10 8 6 4 5 14 17 19 19 19 18 17 16
6 5 5 7 7 4 3 2 1 1 0 1 1 3 2 2 3 3 2 2 3 4 6 7 6 7 8 8 7 8 10 10 9 6 4 12 16 17 17 17 18 18 18
6 5 5 6 7 4 2 1 2 3 1 2 1 1 1 2 2 2 3 4 4 4 4 4 5 5 5 5 7 7 8 9 8 6 5 9 16 17 16 17 18 19 19
7 7 5 4 5 3 1 1 2 3 3 2 2 2 1 2 2 3 4 4 4 4 5 3 4 4 5 6 7 9 8 8 7 7 6 6 9 14 17 18 18 18 19
8 7 6 4 4 2 1 1 3 3 3 3 3 3 2 3 3 3 4 4 4 4 4 4 3 4 5 5 6 7 7 7 9 7 6 6 6 8 13 19 19 18 19
7 5 5 4 4 3 2 1 3 2 2 2 1 1 2 3 4 3 3 3 3 3 4 5 3 4 5 6 6 6 6 6 7 9 8 9 9 8 8 14 19 18 20
6 5 4 3 3 3 2 2 2 2 2 2 1 1 2 2 3 4 3 3 3 2 3 3 3 3 4 4 7 7 6 6 6 7 9 8 8 10 9 9 10 13 19
4 3 3 3 2 2 2 2 2 2 3 2 1 1 2 2 3 3 4 3 3 3 3 3 3 4 4 3 3 4 4 6 7 6 6 6 7 8 7 8 8 7 9
4 3 2 2 2 2 2 2 2 2 3 3 1 0 0 1 2 4 2 3 2 2 3 3 3 3 3 3 3 2 3 4 5 8 5 5 5 5 6 8 7 7 6
3 1 2 2 1 2 3 3 3 3 3 3 2 1 0 1 2 2 3 3 2 2 2 2 2 3 3 3 3 3 2 2 2 3 6 6 5 4 4 6 8 8 7
1 2 2 2 1 1 2 3 5 5 5 5 3 3 2 2 3 3 2 2 1 2 2 3 2 2 3 3 2 3 2 1 1 1 3 4 5 4 3 4 6 6 6
2 2 1 2 1 1 2 4 5 5 5 5 5 6 5 4 5 5 4 2 1 1 1 2 2 2 3 3 3 2 3 2 3 2 3 3 3 3 3 2 2 4 5
3 3 2 1 1 1 3 4 5 6 6 7 8 7 6 5 4 5 4 3 2 1 1 1 2 2 2 3 3 3 2 2 2 2 2 4 4 4 5 4 3 4 4
Wind_Direction
121 133 136 134 132 132 135 140 142 143 141 136 133 130 126 122 119 116 114 113 113 112 111 110 108 103 96 90 85 85 87 89 91 93 94 93 92 90 86 96 114 97 102
123 132 135 134 133 132 135 140 144 145 145 142 139 138 136 133 130 128 126 125 123 120 117 115 114 110 105 102 100 100 100 103 109 113 113 106 98 86 71 70 101 106 108
122 130 135 134 134 133 133 137 143 147 148 147 145 144 144 143 141 140 138 137 134 130 125 123 121 118 115 113 113 115 117 124 133 143 151 128 111 94 83 88 100 109 110
125 137 136 136 136 135 134 136 142 148 150 151 151 150 150 150 150 150 148 147 146 142 137 134 130 127 125 126 127 130 137 152 168 184 204 141 126 110 101 101 107 112 114
127 131 133 141 139 139 138 139 142 148 151 152 154 154 155 155 156 157 157 157 157 153 148 144 140 138 136 138 141 147 162 185 202 228 224 119 110 128 121 117 117 118 120
130 131 138 143 143 143 143 144 146 149 153 156 157 159 160 162 165 168 169 169 168 163 161 158 155 151 151 153 159 169 189 215 229 231 201 131 126 141 136 134 132 130 129
135 131 141 146 146 147 147 149 151 153 156 159 163 167 169 172 176 178 179 180 178 175 173 171 170 166 166 169 178 190 207 229 247 258 180 133 139 148 148 150 149 146 144
133 133 140 147 148 150 152 155 158 160 164 167 171 175 177 179 184 189 190 189 187 187 186 184 182 179 180 183 189 200 217 239 238 248 204 141 148 154 156 161 163 162 160
132 132 145 150 152 155 158 162 166 170 173 177 181 184 187 191 196 200 202 202 201 199 199 199 197 194 194 194 199 206 220 236 266 278 229 145 156 159 162 169 175 176 175
133 139 150 153 154 160 166 172 175 178 182 187 192 195 199 203 208 211 209 209 210 207 207 209 208 207 204 204 207 212 219 235 250 260 251 164 162 163 166 174 183 187 187
136 141 156 153 157 169 172 170 177 185 191 194 199 205 207 214 214 210 217 209 207 209 210 213 215 215 212 213 214 215 217 228 236 242 251 171 168 168 170 177 188 194 196
139 147 152 150 156 174 174 155 181 188 187 200 201 196 206 223 234 229 209 205 206 209 211 215 218 220 219 222 216 213 216 223 241 237 225 169 172 172 174 180 188 197 200
140 143 142 137 141 164 144 151 181 189 173 200 213 195 202 220 234 246 215 194 203 209 213 215 215 220 221 221 215 196 215 224 224 239 206 172 177 179 179 183 190 198 204
134 129 131 127 127 125 91 125 174 182 158 189 198 209 206 215 254 266 256 209 203 208 212 218 208 210 221 225 220 205 210 222 234 229 192 182 186 186 185 187 193 201 206
121 124 98 103 110 100 60 6 8 321 237 228 170 201 226 227 249 276 294 270 250 234 217 218 219 215 215 223 229 223 217 219 229 230 182 187 194 194 193 196 201 207 210
85 79 81 91 99 99 91 347 311 292 283 281 263 234 243 267 271 283 283 279 275 269 260 234 233 235 221 219 230 237 230 226 226 224 200 189 201 200 202 205 207 211 214
67 62 65 88 98 108 134 286 290 292 309 317 329 310 278 275 282 272 274 274 271 271 268 261 257 262 252 235 232 235 234 230 226 219 210 190 200 205 208 211 212 212 215
58 59 50 40 58 73 53 310 300 315 331 340 341 336 327 305 287 277 270 270 272 268 256 249 243 247 251 245 239 236 232 222 222 215 211 206 204 210 212 215 215 214 216
58 59 60 40 29 15 344 312 290 296 303 302 302 323 333 316 304 293 276 271 277 268 253 254 238 239 247 247 243 236 235 224 211 215 210 209 209 208 203 209 212 214 217
62 57 52 50 38 2 351 329 310 308 304 290 298 350 319 307 314 301 282 282 282 279 261 251 252 256 255 254 258 250 235 222 210 211 210 209 209 208 207 204 199 213 218
87 79 65 51 44 2 2 342 336 339 321 298 278 34 333 331 332 311 305 300 280 278 271 258 245 253 249 248 252 260 253 239 220 213 207 208 205 203 204 192 185 195 209
95 95 102 76 40 7 19 319 281 298 294 292 312 223 271 323 317 312 317 300 299 283 274 271 255 255 253 234 221 237 245 234 222 211 194 199 215 200 195 190 186 191 188
99 83 67 61 15 359 339 312 320 312 292 300 311 282 235 300 282 289 303 309 312 298 284 281 251 244 253 264 232 224 237 227 190 210 200 195 194 193 191 181 183 177 183
167 182 159 176 207 283 304 321 327 310 306 310 308 307 309 268 251 240 248 274 310 313 306 291 277 258 255 267 276 259 261 300 258 192 220 190 178 183 195 187 179 166 176
286 274 212 175 187 280 312 305 303 304 311 313 318 308 302 283 257 235 219 204 226 276 312 310 323 302 272 265 268 284 285 269 254 230 218 191 179 175 190 199 170 158 160
283 294 319 63 72 334 319 317 312 307 307 304 299 291 285 269 257 245 215 183 198 213 247 280 279 271 279 283 283 280 281 273 268 262 239 204 191 192 186 180 175 157 153